RH
55 55 53 52 52 54 56 56 57 58 62 68 72 74 75 74 75 73 70 71 73 70 68 70 74 79 80 78 76 77 74 70 68 69 68 65 62 62 63 64 63 62 64 66 68 69 69 66 65 69 74 77 79 80 79 80 80 78 76 73 73 78 81 80 78 73 72 76 77 72 64 53 45 41 38 35 36 39 44 49 52 52 48 47 48
62 61 58 52 48 50 53 56 59 60 62 66 67 68 69 68 69 69 68 70 72 71 71 74 78 81 80 77 74 73 70 68 71 74 70 65 64 64 63 63 63 63 63 65 70 74 73 67 63 64 68 71 75 76 78 78 77 76 75 73 73 78 82 81 80 77 73 74 74 67 58 48 44 42 39 36 36 36 41 48 52 53 52 52 52
63 63 61 53 46 47 50 53 58 61 63 64 63 63 63 62 64 66 67 70 73 74 74 75 78 80 79 77 75 73 70 68 70 73 72 70 72 72 69 67 66 65 64 65 70 73 72 68 66 65 65 66 69 72 72 72 71 71 74 78 79 81 82 81 80 79 77 75 71 64 56 48 45 44 42 42 44 44 48 52 57 60 58 53 53
62 64 64 59 50 47 48 49 53 59 62 63 62 61 60 59 61 64 67 71 75 77 77 78 80 80 79 79 78 78 77 74 73 75 75 76 78 77 76 75 72 70 69 69 70 71 70 71 73 72 68 64 65 67 68 69 70 72 76 80 82 81 80 79 79 79 79 76 72 68 62 55 49 48 48 49 52 53 55 58 62 63 58 53 57
60 62 65 65 57 49 48 48 49 52 57 60 61 62 61 61 61 64 69 73 76 79 79 79 80 80 80 80 81 81 81 80 79 79 79 79 80 80 79 79 76 74 72 70 71 71 70 71 73 75 72 68 69 72 73 75 75 76 78 80 82 81 80 79 77 77 77 76 75 75 71 63 54 52 54 55 56 55 55 60 64 61 56 55 62
62 62 65 66 61 51 48 49 47 47 52 57 60 63 63 63 63 65 69 72 74 76 77 78 79 79 79 80 80 81 81 81 81 80 80 81 81 81 81 81 79 76 72 70 71 69 68 69 70 72 72 71 72 73 74 76 77 76 75 77 81 82 80 78 76 75 77 78 80 81 78 68 56 53 57 58 58 57 54 58 62 58 55 55 62
65 64 65 66 61 52 49 50 49 48 50 54 59 62 64 65 65 66 70 72 72 74 75 77 78 78 79 78 78 79 79 79 79 79 79 81 82 82 82 83 82 77 73 71 71 72 72 73 73 73 73 73 74 73 73 75 76 74 72 73 79 82 80 78 77 77 78 80 84 85 81 70 57 55 59 60 61 60 57 59 60 56 56 56 60
64 64 65 64 59 52 50 51 51 51 51 54 56 59 63 65 66 68 74 75 74 74 74 76 77 78 78 77 77 77 77 76 76 76 75 76 78 79 80 81 83 81 76 71 70 71 73 75 78 78 78 77 75 74 74 74 74 74 72 71 75 79 80 79 78 78 79 80 83 84 79 68 60 58 60 59 59 58 59 63 60 51 56 64 64
61 63 64 64 58 52 52 53 53 53 53 54 55 58 62 66 69 73 78 80 78 77 76 77 78 78 76 74 74 74 74 74 74 74 74 74 74 75 75 76 79 81 80 76 73 71 70 72 77 81 81 79 76 75 74 74 74 73 73 74 76 77 78 78 77 78 79 78 80 81 76 67 62 60 59 58 58 59 62 67 57 44 53 70 69
60 61 62 64 60 54 52 54 55 56 56 56 59 63 65 70 74 78 80 80 80 80 79 79 78 77 75 72 71 70 70 71 70 71 72 72 73 75 74 74 75 77 79 79 78 76 73 72 73 77 81 80 77 76 75 75 74 73 73 75 76 77 77 76 76 77 78 78 79 79 75 68 63 62 61 60 62 63 67 67 53 39 46 63 64
63 63 63 64 64 60 57 56 56 58 58 61 67 72 74 76 78 80 79 79 80 81 80 80 79 77 74 71 69 68 67 67 67 68 69 69 70 72 72 72 73 75 76 77 78 80 80 79 76 76 80 79 76 74 73 75 76 75 74 75 74 74 74 73 73 74 75 77 78 80 79 71 65 65 64 63 64 65 69 67 49 36 43 56 57
69 72 72 73 71 67 65 61 60 62 64 67 73 78 79 80 79 79 78 78 80 82 82 81 81 80 77 74 71 68 65 64 64 65 65 65 66 67 69 70 71 73 73 72 74 76 78 79 78 77 78 79 77 75 74 74 73 72 73 74 74 73 72 71 70 70 73 78 80 82 82 75 68 69 68 66 65 66 70 67 48 34 40 51 54
82 80 76 80 83 79 74 69 67 69 71 72 75 77 79 80 80 80 81 83 85 86 86 85 84 82 79 77 74 72 69 67 66 65 65 64 63 64 66 69 71 72 72 69 69 73 75 76 77 76 75 75 76 75 75 72 69 67 67 67 69 70 70 70 70 71 76 81 83 85 84 78 74 74 73 69 68 69 71 66 49 36 39 47 53
92 83 74 82 91 89 83 80 78 81 81 77 76 78 80 84 85 85 85 86 86 83 79 78 79 80 80 79 77 75 72 70 68 67 66 65 64 64 65 69 71 72 71 68 66 68 71 72 75 75 74 74 74 73 73 71 70 70 66 62 61 61 63 67 70 73 78 83 86 87 84 81 79 79 77 73 72 74 73 66 50 41 47 54 59
92 83 75 82 91 91 90 90 88 86 84 80 79 82 87 93 96 91 86 85 82 76 72 75 79 82 83 83 82 81 79 76 73 70 68 67 66 66 67 69 71 72 71 68 67 66 66 67 70 72 75 77 77 75 74 72 71 72 71 66 61 59 60 65 70 75 80 85 88 87 85 84 82 81 78 75 77 79 73 61 50 49 61 70 72
88 84 81 84 89 90 89 88 87 87 88 86 86 90 94 97 95 89 84 86 87 83 82 86 88 84 80 79 82 84 85 83 81 78 75 72 70 69 69 70 71 72 71 70 69 68 66 65 65 69 79 87 86 84 83 80 75 74 73 68 64 65 68 69 72 77 83 87 90 88 86 85 81 79 77 77 82 81 68 58 58 66 77 81 82
87 86 86 86 86 85 82 82 87 92 94 93 93 95 95 93 90 86 84 85 85 83 86 93 94 88 84 84 85 86 85 86 87 86 83 80 79 77 74 73 73 74 74 73 74 73 72 69 65 65 73 81 84 86 89 88 83 80 76 71 67 69 74 76 77 80 84 87 88 87 84 82 79 77 78 83 86 78 65 64 74 80 83 82 83
86 85 87 83 81 83 86 90 93 92 91 94 97 97 95 93 93 94 93 93 90 86 87 93 93 90 89 88 85 83 83 85 87 87 87 88 88 88 85 82 80 80 80 80 80 80 78 76 70 65 64 66 72 81 87 89 89 85 80 75 69 69 78 84 85 85 86 86 86 84 84 82 80 81 85 89 85 72 65 73 83 84 82 79 77
92 92 93 90 87 91 97 98 96 92 90 93 95 94 92 90 89 91 92 91 88 85 85 86 86 87 89 89 87 86 87 89 90 91 93 94 94 95 94 92 89 86 85 84 85 84 83 82 79 76 72 67 69 78 84 87 89 87 83 78 72 72 80 87 88 90 92 91 88 87 87 86 87 90 91 85 76 69 72 82 86 84 80 76 69
99 99 99 98 95 96 97 96 95 93 92 91 90 90 88 85 85 88 87 83 84 86 86 84 85 88 90 91 93 95 96 97 96 97 98 98 98 98 98 97 94 91 91 92 91 89 88 88 88 88 88 85 82 86 90 91 90 87 83 79 76 77 82 88 91 93 94 94 93 91 92 92 91 88 81 72 69 75 83 86 85 81 76 67 56
99 98 100 100 97 96 95 94 95 93 92 91 90 90 90 88 89 90 85 81 85 89 89 88 90 93 94 95 96 97 98 98 97 98 98 96 95 95 94 94 93 91 93 94 94 93 93 96 96 93 94 96 95 93 93 95 94 89 83 82 82 83 85 89 94 97 98 98 95 92 88 82 74 68 66 70 78 85 86 84 80 75 65 52 42
99 100 100 98 97 96 94 94 94 92 92 93 92 92 90 88 86 84 82 84 89 90 89 89 89 90 91 90 89 89 91 92 91 92 91 90 90 90 90 90 90 91 93 92 94 97 98 99 100 97 95 97 96 93 92 95 95 87 80 80 83 85 88 94 100 99 92 86 83 79 70 60 59 66 75 83 87 84 82 80 75 65 53 42 36
98 98 96 93 93 93 93 94 94 93 93 90 84 79 76 77 81 82 85 91 93 90 89 87 85 84 83 81 79 79 79 79 80 84 85 85 87 88 89 90 91 93 96 96 98 99 96 93 94 97 98 97 94 91 90 94 94 85 78 81 85 86 91 98 99 89 75 68 67 63 56 58 72 83 86 86 84 79 78 78 70 59 52 45 40
91 90 90 90 90 90 91 91 89 86 82 74 63 56 57 70 84 91 95 99 97 93 91 90 89 88 85 82 80 77 72 70 74 81 84 84 84 82 82 82 82 85 91 95 97 96 90 88 91 96 99 99 97 95 96 98 98 91 87 91 94 94 97 98 96 88 75 62 55 53 58 73 87 90 88 87 83 76 74 75 70 64 62 59 55
83 85 85 83 80 77 75 72 67 62 57 51 47 45 49 61 75 85 91 95 95 93 91 90 90 91 89 86 82 78 74 70 68 69 69 70 73 74 73 69 63 61 68 78 88 92 90 89 92 96 100 100 99 98 96 97 97 95 96 99 95 90 85 79 80 82 74 61 58 64 74 86 92 91 89 88 83 78 77 76 75 72 70 69 68
64 65 61 57 54 51 48 46 44 41 36 34 35 38 40 46 58 71 81 85 88 89 87 88 92 96 96 92 87 83 80 75 68 60 54 52 52 54 57 53 43 34 31 41 61 78 86 88 90 93 95 94 91 88 85 85 85 81 76 69 59 49 42 39 44 53 55 61 77 86 85 86 88 85 80 79 80 82 82 79 78 77 75 74 73
40 40 38 36 37 37 37 38 38 37 36 36 37 38 38 39 47 59 71 78 83 85 83 82 88 95 98 96 90 85 82 79 74 67 60 56 52 46 42 39 34 25 15 12 24 45 63 73 77 76 75 73 69 62 55 54 52 41 32 29 27 24 23 27 38 48 53 62 75 77 69 67 70 71 75 81 84 83 81 79 79 79 77 76 75
28 33 36 38 39 38 37 35 33 31 31 34 36 38 39 40 41 45 51 56 60 63 65 67 74 84 90 88 84 81 80 79 77 71 65 60 52 39 28 26 29 29 22 11 8 16 29 39 41 40 40 44 48 48 47 48 45 37 36 42 43 37 33 38 51 62 67 71 75 73 70 73 77 81 87 88 84 80 80 80 80 78 77 77 77
29 34 38 38 38 35 31 28 27 26 25 24 24 26 28 30 32 33 34 36 38 41 44 47 53 59 62 65 70 75 77 74 68 60 49 37 26 16 9 10 17 23 25 19 10 7 12 16 23 31 35 35 38 45 55 64 64 61 63 69 67 60 58 63 70 75 78 81 83 83 83 87 90 91 89 84 81 80 81 79 79 79 80 80 79
38 42 44 44 44 44 42 40 37 33 28 23 20 20 21 23 24 24 25 27 30 32 33 34 35 35 35 39 47 51 50 45 39 31 22 12 8 6 4 5 7 9 14 14 9 6 7 11 28 51 59 50 42 43 53 66 74 74 76 79 79 78 79 80 82 84 85 86 87 87 87 88 87 86 84 83 82 81 80 79 79 79 79 78 78
39 44 48 50 51 52 51 48 41 34 29 25 24 25 26 26 26 24 24 26 29 32 32 30 26 22 20 22 25 24 23 22 19 16 12 7 6 5 4 5 5 4 6 8 7 7 9 16 39 64 70 64 61 55 48 52 62 65 69 75 78 81 84 85 86 87 87 86 85 84 83 82 80 78 77 76 73 72 73 74 75 76 78 79 79
35 40 47 50 51 49 48 47 42 35 29 25 25 28 30 31 29 28 29 32 35 38 39 36 31 29 27 27 27 26 26 25 20 17 14 9 7 6 4 6 9 10 12 13 10 10 15 26 43 55 51 50 58 57 46 48 57 62 68 77 81 82 84 85 84 83 81 80 78 77 74 72 70 68 66 64 65 67 69 72 75 77 78 78 77
33 35 38 40 40 40 41 42 42 41 36 29 25 25 27 29 31 34 38 41 43 44 46 45 44 43 43 41 39 36 33 29 24 20 16 11 10 9 10 16 24 28 28 27 27 33 41 47 54 57 54 56 66 70 68 71 76 76 78 80 80 79 79 78 78 79 79 77 75 73 71 69 67 65 64 63 65 67 69 72 74 76 76 77 78
41 39 38 37 36 34 34 34 34 36 36 33 28 25 25 27 31 35 43 50 52 53 53 51 52 54 53 48 43 39 37 34 30 26 23 24 23 23 28 40 50 51 49 50 56 66 74 75 74 75 78 80 82 83 82 83 82 81 81 79 77 78 79 78 79 80 79 77 76 74 71 68 65 63 63 64 65 67 70 72 74 75 77 78 77
54 51 48 45 42 39 37 34 33 32 33 32 29 26 26 27 28 30 34 42 50 56 58 58 60 64 62 54 46 42 42 41 39 37 38 43 46 48 56 68 75 73 72 74 78 82 84 84 83 83 84 85 85 84 84 83 83 83 83 83 83 83 82 82 82 82 80 78 76 72 67 64 63 62 63 64 65 67 68 68 69 70 70 69 68
69 66 63 59 55 51 46 42 38 36 36 36 33 28 25 25 25 23 23 26 35 48 58 63 67 71 69 61 55 53 51 50 49 48 48 50 52 54 59 66 75 82 85 85 86 86 86 85 86 86 86 87 87 87 87 87 88 88 87 87 87 86 85 83 81 78 75 72 68 65 63 63 65 67 68 69 69 69 68 66 65 65 63 62 60
81 79 77 73 70 67 63 58 53 47 43 41 39 34 29 26 24 21 18 18 25 37 50 60 67 74 74 68 62 60 57 55 54 52 49 47 46 45 43 47 61 78 87 89 90 91 90 89 90 90 91 91 91 90 90 89 88 87 85 84 82 79 76 73 69 66 63 61 60 61 62 63 64 65 66 66 66 66 65 61 58 56 54 50 47
85 84 84 82 80 79 77 75 71 65 57 51 45 39 33 30 28 25 21 21 26 38 51 60 67 74 77 72 66 64 62 59 58 58 56 50 44 39 38 45 59 73 82 86 90 91 91 91 91 91 91 90 89 88 87 85 84 82 80 78 75 72 69 66 64 62 61 60 59 60 60 60 59 58 58 58 56 54 51 48 44 42 39 37 35
83 84 85 84 83 83 83 83 82 80 75 68 61 54 45 38 36 35 32 28 30 38 49 60 68 73 77 75 71 68 67 65 67 68 64 54 43 37 38 48 62 73 79 83 87 88 88 89 89 88 88 88 87 86 85 83 81 80 78 75 74 72 70 68 66 64 62 60 58 57 56 55 54 53 52 51 47 44 42 40 37 35 34 33 32
73 79 82 83 82 81 80 81 83 83 83 82 79 73 64 53 48 46 44 41 38 37 41 49 58 66 72 74 73 73 73 73 74 73 64 52 44 41 43 50 63 74 80 83 84 85 85 86 87 86 86 85 83 82 80 78 75 73 71 69 68 67 66 66 65 63 62 60 58 56 54 52 50 49 47 45 43 41 39 36 34 33 32 32 31
47 54 60 65 69 71 73 77 80 82 84 85 85 84 80 71 64 61 60 57 54 51 49 49 54 61 67 69 69 71 73 74 74 72 63 52 45 45 49 53 59 66 71 73 75 77 77 78 78 78 77 76 75 73 71 68 66 65 63 63 64 65 65 65 65 64 63 62 59 56 54 52 49 46 43 41 39 37 35 34 33 33 32 32 34
46 47 48 49 51 54 57 63 69 73 77 81 83 86 88 85 79 74 69 65 65 65 64 63 62 62 64 67 68 71 74 76 76 72 63 53 48 49 52 55 58 61 63 65 66 67 68 69 70 70 70 69 68 66 64 63 61 60 61 62 64 67 69 71 72 71 69 65 61 57 54 51 47 43 39 37 35 34 34 34 33 33 35 37 39
66 65 64 61 60 60 60 61 63 66 69 73 76 80 84 86 84 80 74 69 67 67 68 70 70 69 69 70 72 74 77 79 77 73 64 55 52 54 56 59 61 63 64 65 66 67 67 67 68 68 68 68 67 66 65 64 63 63 64 67 69 72 75 77 78 76 72 67 62 59 54 48 43 40 37 36 35 35 36 37 39 41 45 48 51
66 67 67 67 66 66 65 65 64 64 63 64 65 67 70 75 81 85 84 79 73 68 67 69 73 76 77 75 74 75 77 78 77 73 66 60 58 60 62 64 65 65 66 66 67 67 68 69 69 70 70 70 69 69 67 66 66 67 69 73 76 80 82 83 81 77 72 67 62 56 50 44 41 39 38 39 40 42 45 48 52 56 59 60 63
61 63 64 65 65 65 64 64 64 63 62 59 57 57 57 60 69 80 86 87 84 79 71 66 68 73 77 77 76 77 79 79 77 73 68 65 65 67 67 67 67 67 67 67 67 68 68 69 69 70 70 69 70 70 68 68 69 72 76 80 83 84 85 83 79 75 71 65 58 53 48 44 43 44 44 47 50 54 58 61 63 65 68 69 71
56 59 61 63 63 63 64 65 65 65 64 63 61 59 57 56 59 68 77 83 88 87 79 71 70 74 76 76 76 78 79 79 77 74 71 70 71 71 70 69 68 68 68 68 68 69 69 69 69 69 70 70 71 71 71 73 77 80 84 87 89 86 82 77 72 67 63 57 53 50 48 48 49 52 56 60 64 66 67 67 67 69 70 71 72
58 60 62 63 63 63 65 69 70 71 71 71 69 67 65 63 63 69 78 87 92 92 86 79 75 76 76 76 77 79 80 79 78 77 75 75 75 74 72 71 71 71 70 70 70 70 70 71 71 71 72 72 74 76 79 83 86 89 92 92 89 83 76 68 62 57 54 53 53 55 56 58 61 66 69 73 75 74 71 70 70 71 72 73 75
65 66 66 66 65 66 68 70 72 72 72 71 70 69 69 70 71 77 86 92 94 93 90 85 81 79 79 80 80 80 81 82 82 80 79 79 78 76 74 73 74 73 72 71 72 72 73 74 74 74 76 78 80 84 88 92 95 97 98 96 93 88 78 68 60 57 58 60 62 64 66 69 73 78 80 80 78 75 72 71 72 74 77 80 81
69 69 69 68 68 70 72 72 73 74 75 77 79 81 83 84 85 87 91 94 94 92 90 89 86 84 82 82 83 83 84 85 84 81 81 81 79 77 76 76 76 75 74 74 74 75 76 78 78 79 81 84 87 91 94 96 99 100 100 100 99 93 81 72 68 70 74 77 78 79 79 80 82 83 82 80 77 75 73 73 74 76 80 83 83
72 72 72 73 75 78 80 80 81 83 85 87 89 90 92 92 92 91 91 92 92 92 93 95 95 91 86 84 84 85 85 86 85 82 80 80 79 78 79 79 77 76 75 75 76 78 80 81 82 84 87 91 94 97 97 98 99 100 100 99 95 85 76 78 85 89 90 90 90 89 87 85 84 84 82 79 77 78 79 78 79 81 82 82 82
78 77 78 80 82 83 83 83 84 85 86 85 85 87 89 89 88 87 87 88 88 89 91 95 98 95 91 89 90 90 88 87 87 85 83 82 82 82 82 80 79 78 78 78 79 82 83 82 84 87 92 97 99 99 97 99 100 98 95 93 87 78 76 87 97 98 95 94 93 89 85 82 81 81 81 78 78 82 86 87 88 87 86 84 84
Wind_Speed
23 21 21 21 21 21 21 20 19 18 17 16 16 15 14 14 14 14 14 13 12 12 11 11 10 10 10 10 10 11 11 10 9 9 9 9 9 9 10 10 10 10 9 9 9 9 10 10 10 11 12 12 12 12 12 12 12 11 11 10 9 9 10 11 13 13 10 8 8 9 9 10 11 13 12 12 11 12 13 15 17 18 19 19 19
21 20 20 20 21 21 21 20 19 18 17 17 17 16 15 14 14 14 14 14 13 13 12 10 9 9 10 10 10 10 10 10 10 10 10 9 9 8 9 10 10 10 9 9 9 10 11 11 10 10 12 13 13 13 13 13 12 12 10 10 9 8 9 9 10 12 11 8 8 9 10 12 13 14 14 14 14 14 14 15 16 17 18 18 19
21 19 19 20 20 20 20 20 19 19 18 18 18 17 16 15 15 15 15 14 14 13 12 11 10 10 10 10 10 10 10 10 10 10 10 9 8 8 8 9 9 9 9 10 10 10 11 11 10 11 12 13 13 13 13 13 12 11 10 9 9 9 9 9 9 11 11 9 9 10 12 13 13 14 14 14 15 15 15 14 15 17 18 18 17
21 21 20 20 20 21 21 20 20 20 19 19 19 18 17 16 16 16 15 14 14 13 13 11 11 11 10 10 9 9 9 9 10 10 9 8 8 8 8 9 9 9 9 10 10 11 12 11 11 11 12 12 12 12 12 12 12 11 11 10 11 10 10 11 10 10 9 9 10 12 14 14 14 14 14 14 14 14 13 13 15 17 17 16 15
22 21 20 20 21 22 21 21 21 21 20 19 19 19 18 17 17 16 15 14 14 13 13 13 12 11 11 10 10 10 9 9 10 10 9 8 8 8 8 9 10 10 11 11 11 11 12 12 12 11 12 12 12 12 12 11 11 12 12 11 11 11 11 11 10 9 8 9 11 13 15 15 14 13 14 14 13 13 12 13 15 16 15 14 13
25 23 22 21 21 22 22 22 22 22 21 20 19 19 19 18 18 17 16 15 15 15 15 14 13 12 12 11 11 10 10 10 10 10 10 9 9 9 9 10 10 11 12 12 12 12 12 12 12 12 12 12 12 12 12 12 12 12 12 12 11 11 11 11 10 9 8 9 11 14 15 15 14 13 14 14 14 14 14 14 14 15 14 14 12
29 25 23 22 22 23 22 22 22 22 22 20 20 19 19 19 19 18 17 16 16 16 16 16 15 13 13 13 12 12 11 11 11 11 11 11 11 11 11 12 12 12 13 13 13 13 13 12 12 12 13 14 14 13 12 12 13 13 12 12 12 12 12 12 11 10 10 10 11 14 15 15 14 13 14 14 14 15 16 16 15 15 13 13 12
31 28 24 22 22 23 22 21 21 22 22 21 20 20 19 19 19 19 18 17 17 17 17 17 16 15 15 15 14 14 14 13 13 13 13 12 13 13 13 13 14 14 14 14 14 14 14 13 13 13 13 14 14 13 13 14 14 13 13 12 13 14 13 13 12 12 12 12 11 13 14 13 13 13 13 13 14 15 16 17 17 15 13 12 12
31 29 26 24 22 22 22 21 21 22 22 22 21 20 20 19 19 20 19 18 18 17 17 17 17 17 16 16 15 15 16 15 15 15 15 15 14 14 14 14 15 15 15 14 14 14 14 14 14 13 13 13 13 13 13 13 13 13 12 13 13 14 14 14 14 14 14 14 12 13 13 13 13 13 13 14 14 15 15 15 15 14 11 10 11
31 29 28 24 22 22 23 22 22 22 22 21 21 20 20 19 20 21 21 20 19 18 17 18 18 18 18 17 17 17 17 17 16 17 17 18 18 17 17 16 16 15 15 15 15 15 15 16 15 14 14 13 13 13 13 12 12 12 12 12 13 14 15 15 15 15 16 15 14 13 13 12 12 13 13 14 14 14 15 14 14 13 11 9 10
33 32 30 25 23 23 23 23 22 21 21 21 20 20 19 18 19 21 22 21 20 19 19 19 19 19 19 18 18 19 19 19 19 19 19 20 20 20 19 18 18 18 18 17 17 17 16 17 17 15 14 13 12 12 12 12 12 12 12 12 14 15 16 16 17 17 17 17 15 14 14 13 12 12 13 13 13 13 14 14 13 12 12 11 12
34 33 30 25 23 23 23 23 23 21 20 20 20 19 18 17 17 18 20 21 21 20 20 20 20 19 19 19 19 19 20 21 22 22 21 21 20 21 21 20 21 21 21 20 19 18 18 18 18 16 15 13 12 12 12 12 12 12 13 13 14 15 16 16 17 17 17 17 16 15 15 14 13 12 13 13 13 13 13 12 12 12 11 11 13
34 31 26 23 22 22 22 23 23 22 21 20 20 20 19 19 18 18 20 22 22 22 22 21 21 22 22 22 22 21 21 21 22 23 23 22 22 22 22 22 22 23 23 22 21 20 19 19 19 18 17 15 14 14 14 14 14 15 15 15 15 15 15 16 16 16 16 16 16 16 16 15 14 14 14 14 13 13 13 12 11 11 10 11 12
31 27 25 24 23 22 21 22 23 23 22 22 22 22 21 22 22 23 24 24 23 23 22 22 23 23 23 24 24 24 24 23 23 23 24 24 23 23 23 23 24 24 24 24 23 22 21 21 22 21 20 19 18 16 16 16 16 16 17 17 17 17 16 16 16 16 17 17 17 17 17 16 16 15 15 15 14 14 13 11 11 10 10 9 10
29 26 25 24 23 22 22 22 23 23 24 24 24 23 23 23 23 24 25 24 23 22 22 22 23 23 23 23 22 22 22 23 23 24 24 25 24 24 24 24 25 25 25 25 24 23 22 23 24 24 24 24 22 20 19 18 18 18 18 18 18 18 17 16 16 16 17 17 17 18 18 17 17 16 16 16 15 14 13 11 10 9 7 7 8
28 26 24 22 21 22 22 22 23 23 24 24 24 24 24 22 20 19 20 21 21 20 20 20 20 22 24 25 24 23 23 23 23 24 24 25 25 25 25 26 27 27 27 27 27 27 27 27 27 26 26 26 26 24 22 21 20 20 19 19 19 18 17 17 16 16 17 17 18 18 18 18 17 17 17 16 16 14 13 11 8 6 5 5 7
27 23 21 20 19 20 21 22 22 21 20 22 23 24 23 21 18 18 19 21 21 21 21 21 22 23 25 26 27 26 26 26 26 26 26 26 27 26 26 27 28 29 30 31 31 32 32 32 32 31 28 27 27 27 25 25 24 22 21 20 19 19 18 17 17 17 17 18 18 19 18 18 18 17 17 16 15 14 12 9 7 6 6 6 7
23 21 19 19 19 20 20 21 20 20 20 21 21 19 18 17 17 17 17 17 18 20 22 23 24 25 27 27 28 28 28 28 28 29 29 28 28 27 27 28 29 30 31 32 33 34 34 33 34 34 32 31 30 28 27 27 26 24 22 21 20 20 19 18 18 18 18 18 19 19 19 18 18 17 16 15 14 13 11 9 9 9 9 9 9
22 21 20 19 19 20 18 16 16 16 18 18 17 16 15 15 16 16 16 17 17 19 21 22 24 25 25 25 27 28 28 28 28 28 29 29 29 29 29 29 30 32 33 34 35 36 36 35 35 34 33 33 33 31 28 28 27 25 23 22 21 21 19 19 19 19 19 19 19 19 19 18 17 16 15 14 13 11 10 10 10 10 10 10 10
16 17 16 15 15 15 14 12 10 10 12 14 15 15 14 14 14 14 14 16 18 19 19 21 22 22 21 22 23 24 25 25 26 27 27 28 29 29 29 29 30 31 32 33 34 34 35 36 37 37 35 34 33 32 30 29 27 25 23 21 20 20 19 19 20 20 20 20 20 19 18 17 15 15 14 12 11 10 9 9 9 9 9 10 10
10 11 9 8 8 8 8 7 7 6 7 8 9 10 9 8 8 7 7 9 10 10 11 13 14 14 15 15 15 15 16 16 17 18 19 20 21 23 23 24 25 26 26 27 27 27 29 32 35 37 37 35 33 33 32 30 28 24 20 19 19 19 19 20 20 21 21 20 19 18 16 14 13 13 12 10 9 8 7 7 7 8 8 8 7
8 8 7 6 6 5 3 2 1 1 1 2 3 3 4 4 4 3 2 4 4 3 3 5 5 5 5 6 6 7 7 8 10 10 11 12 13 14 15 15 16 18 20 21 21 22 24 28 31 34 37 38 38 35 32 29 25 21 18 17 17 19 19 19 18 18 18 17 16 15 13 12 10 10 9 8 7 6 5 5 6 7 7 5 4
8 8 7 7 7 6 6 6 5 5 5 4 4 4 4 4 3 3 1 1 2 3 3 4 4 4 4 5 5 6 7 7 8 9 9 10 11 11 11 12 13 15 16 18 18 17 16 19 22 27 32 36 35 32 28 25 22 19 17 16 17 18 18 17 16 16 16 15 13 12 11 9 9 10 9 8 5 4 4 4 5 6 5 5 5
7 8 9 9 10 9 9 9 8 7 6 6 6 6 6 6 5 5 3 2 2 4 4 5 6 5 6 6 7 8 8 8 8 8 9 9 10 11 11 11 12 13 14 15 15 13 12 13 14 17 21 26 27 27 26 23 20 18 17 15 15 16 16 16 15 16 16 13 10 10 10 10 11 11 10 7 4 2 2 3 5 6 6 7 8
8 9 10 10 11 10 9 8 7 7 7 7 7 7 7 7 6 5 4 3 3 4 5 6 6 6 5 6 7 8 8 9 9 8 8 9 10 11 12 13 13 13 12 13 13 11 10 11 11 11 10 11 14 17 17 16 15 14 13 13 12 11 12 14 15 17 16 9 4 6 8 11 11 10 8 5 4 4 4 5 6 7 8 9 9
9 10 10 11 11 10 9 8 8 8 8 7 7 7 7 6 6 5 4 3 4 4 5 6 6 5 5 5 6 7 8 9 9 8 9 9 10 11 13 14 14 14 13 12 11 10 9 9 9 9 8 6 5 5 5 7 9 8 8 9 9 8 10 11 10 12 12 5 5 7 8 10 10 8 8 8 8 7 6 7 8 9 10 10 11
10 10 10 11 11 10 9 9 8 8 8 8 8 7 7 7 6 5 5 5 5 5 5 4 4 4 5 7 7 8 9 9 9 10 10 11 11 12 13 14 14 14 14 13 11 9 8 8 8 9 9 8 6 6 6 4 5 5 6 7 6 6 7 6 4 5 4 5 10 10 8 9 10 11 11 11 9 8 9 9 9 10 11 12 12
11 11 10 10 10 10 9 9 9 9 8 8 8 8 7 7 7 6 6 6 6 6 6 6 5 5 7 9 11 11 11 11 11 12 13 14 15 15 15 14 14 13 13 13 11 8 7 6 6 6 8 8 6 7 6 3 2 2 3 4 4 5 4 2 1 1 1 5 10 11 9 10 11 11 11 11 9 10 11 11 11 12 12 13 14
11 10 10 9 9 9 9 9 9 9 9 8 8 7 7 7 7 7 8 8 8 7 8 8 8 8 9 11 12 13 13 13 14 15 17 17 17 17 15 13 12 12 13 13 11 9 6 5 3 3 3 4 4 5 6 5 2 2 2 2 2 4 4 3 3 3 4 6 8 9 9 10 11 10 11 11 11 12 12 12 13 13 14 14 14
10 10 10 10 10 10 10 10 10 10 10 10 9 8 7 7 7 7 8 8 9 9 9 9 10 11 11 12 13 14 15 16 16 17 17 16 16 15 14 12 10 10 10 11 10 8 5 3 2 1 1 1 1 1 3 4 3 2 2 2 2 3 4 4 4 5 6 7 8 8 9 9 9 9 10 11 11 12 12 13 14 14 14 14 14
9 10 10 11 11 11 12 12 12 12 11 10 10 9 9 8 8 8 8 7 8 9 9 9 10 10 11 11 13 14 15 15 15 15 14 13 12 12 11 11 10 8 7 8 7 6 4 3 4 5 4 2 2 2 1 2 2 2 1 2 3 4 5 5 6 6 6 6 6 6 6 6 7 8 9 10 11 12 13 13 14 14 14 14 15
9 9 10 11 11 11 12 12 12 12 12 11 11 10 9 9 8 8 8 7 7 8 9 9 9 9 10 10 11 12 12 13 13 13 12 11 10 10 10 10 10 9 7 6 5 4 3 3 6 7 6 5 4 3 4 6 6 5 4 4 4 4 5 5 4 4 3 3 3 4 4 5 7 8 9 10 11 12 13 13 13 14 14 14 15
10 10 11 11 12 12 12 12 12 12 12 12 12 11 11 10 9 8 8 8 7 8 8 9 9 9 9 10 10 10 11 11 11 11 11 10 10 9 9 10 10 10 9 7 6 4 2 2 5 6 5 4 3 2 2 2 3 3 3 2 2 1 1 1 1 2 3 4 5 5 6 7 8 9 10 11 12 12 13 13 13 13 14 14 15
10 10 11 11 12 13 13 14 14 14 14 13 13 13 12 11 10 9 8 8 8 9 9 9 9 9 9 9 9 9 9 10 10 11 11 10 10 9 9 10 10 10 9 8 7 4 2 1 2 2 2 2 3 3 3 3 2 1 1 1 2 2 3 4 5 6 7 8 8 8 9 9 10 10 11 12 13 13 14 14 14 15 16 16 17
8 9 10 11 12 12 13 13 14 14 14 14 14 13 13 13 12 11 10 9 9 9 10 9 9 9 9 9 9 8 8 8 9 9 10 10 10 10 10 10 10 9 8 7 5 3 3 3 3 3 3 3 2 2 1 2 2 3 3 4 4 5 6 7 8 9 10 10 11 12 12 12 12 12 13 13 14 14 15 15 16 17 18 18 19
7 8 9 10 10 11 12 12 12 13 14 14 15 14 13 13 14 13 12 12 11 10 10 10 9 9 9 10 9 8 7 7 7 8 8 8 9 10 10 9 8 7 6 4 2 2 1 1 1 1 1 1 2 2 3 4 4 5 6 6 7 8 9 10 11 12 12 13 13 14 14 14 14 14 14 15 15 16 17 17 18 19 19 20 21
10 10 10 11 12 12 12 12 11 11 12 14 15 15 14 13 14 14 14 13 12 11 10 10 10 9 9 10 10 9 7 5 5 6 6 7 9 10 9 7 5 5 4 3 2 1 1 1 1 2 2 3 3 4 5 6 6 7 8 9 10 11 12 13 13 13 14 14 14 14 15 15 15 16 16 17 17 18 18 19 19 19 20 20 20
12 13 13 14 14 15 14 14 13 13 12 13 14 15 15 14 14 14 14 14 13 12 11 11 10 10 9 9 10 10 8 6 5 6 7 8 9 9 8 5 4 4 4 3 3 3 4 4 4 4 4 5 5 6 7 8 9 9 10 11 12 13 13 14 14 14 15 15 15 16 16 17 17 18 18 18 19 19 19 19 19 19 19 18 18
14 15 15 16 17 17 17 16 16 15 14 14 14 15 15 15 15 14 14 14 14 14 13 12 12 11 10 11 11 11 9 8 7 8 9 9 8 6 5 4 4 4 3 4 4 4 5 5 5 6 6 7 8 9 9 10 11 12 13 13 14 14 15 15 15 16 16 16 17 17 18 18 18 19 19 19 19 19 18 18 18 17 17 17 16
16 16 17 17 18 19 19 19 18 17 17 16 16 16 16 16 15 15 15 15 15 15 15 15 13 12 12 12 13 12 11 10 9 9 10 9 7 5 4 4 4 4 4 4 5 5 6 7 8 8 9 10 11 11 12 13 14 14 15 15 16 16 16 16 16 17 17 17 18 18 19 19 19 18 18 18 18 18 17 16 16 15 15 15 15
17 17 18 18 19 20 20 20 20 20 20 20 19 19 18 18 16 15 16 17 17 17 17 16 15 14 14 15 15 14 13 12 11 11 10 9 6 4 3 4 4 5 5 6 6 7 8 9 10 10 11 12 13 14 14 15 16 16 16 17 17 16 16 16 17 17 17 18 18 19 19 19 18 18 17 17 16 15 15 14 14 14 14 14 14
14 15 16 16 17 18 19 19 20 20 21 21 21 21 21 21 21 20 19 18 19 20 20 19 17 16 16 16 16 16 15 14 13 12 10 8 5 4 3 3 4 5 6 7 8 8 9 10 11 12 13 14 15 16 16 17 17 17 17 17 16 16 16 16 16 17 17 18 19 19 18 17 16 16 15 14 14 13 13 12 12 13 13 13 13
11 12 13 14 14 15 17 18 18 19 20 20 21 21 22 22 23 23 23 22 21 20 21 20 19 17 17 17 17 17 17 16 15 13 10 8 5 4 3 4 5 6 7 8 9 9 10 11 13 14 15 16 17 17 18 17 17 17 16 16 15 15 16 16 17 18 18 18 18 17 16 14 13 13 12 11 11 11 11 11 11 11 11 10 11
13 13 14 15 16 16 17 18 19 20 20 21 21 22 23 22 22 22 23 25 24 23 22 21 20 19 19 19 19 19 19 18 16 14 11 8 6 4 4 5 6 7 8 9 10 11 12 13 15 16 17 18 18 18 17 17 16 15 15 14 14 14 15 16 17 18 18 18 16 14 12 12 11 11 10 9 9 9 9 9 8 8 8 8 9
17 17 18 18 19 19 20 20 21 22 22 23 23 23 23 24 23 22 22 23 25 25 25 23 22 21 21 21 22 21 20 18 15 13 10 8 6 5 6 6 6 7 8 10 11 13 14 16 17 17 17 17 17 17 17 16 15 14 13 13 13 14 15 16 17 18 18 17 14 12 10 10 9 9 9 8 8 8 7 7 7 7 7 8 9
19 20 20 21 21 21 21 21 22 23 23 23 23 23 23 24 25 25 23 22 22 24 25 25 24 23 22 22 22 22 20 18 16 13 10 9 7 7 8 7 7 7 9 11 13 15 16 17 17 17 17 17 17 17 16 14 13 12 13 13 13 14 15 16 17 16 15 13 11 9 9 8 8 8 8 7 7 7 7 7 7 7 7 8 8
18 19 19 20 21 21 21 21 22 22 22 22 22 22 22 22 24 25 24 23 21 22 24 25 24 23 21 21 22 22 21 20 17 14 11 10 9 9 9 8 8 9 11 12 14 16 17 18 18 17 17 17 17 16 15 13 13 13 13 14 15 15 16 15 14 13 11 10 8 7 7 7 7 7 7 6 6 6 6 6 7 7 8 8 8
18 18 19 19 20 21 21 21 21 21 22 22 22 22 21 21 21 21 22 21 20 20 23 25 26 25 23 22 23 24 23 21 17 13 12 11 11 10 10 9 9 10 12 14 16 17 17 17 17 17 17 17 18 17 15 13 13 13 14 15 16 17 17 16 13 10 8 7 6 6 7 7 6 6 6 5 5 6 6 7 7 8 8 7 7
18 18 19 18 19 19 19 19 19 19 20 21 21 20 20 19 18 17 18 18 18 19 21 24 26 27 26 25 26 27 25 21 16 13 12 12 11 11 10 10 11 12 13 15 17 18 17 17 17 17 18 18 18 16 14 13 12 13 13 14 16 18 18 15 11 7 5 4 4 5 6 6 5 5 5 5 5 6 7 7 8 8 8 7 7
17 17 17 16 16 16 16 15 15 14 14 15 15 15 15 16 16 16 15 16 17 18 19 21 25 28 29 29 29 27 23 19 16 14 13 12 12 11 11 10 11 12 14 16 17 17 17 17 17 17 17 17 17 16 14 12 11 12 14 15 18 18 15 10 6 4 4 4 4 4 5 5 5 5 5 5 5 6 6 7 8 8 8 7 7
14 14 13 13 12 12 12 12 11 11 11 12 12 13 13 13 13 13 14 14 15 17 18 20 22 25 27 26 25 22 19 16 15 14 12 11 11 10 9 10 11 13 15 16 17 17 18 18 17 17 16 16 16 16 13 10 10 13 14 15 15 13 7 3 3 4 4 3 4 5 5 6 6 6 5 5 5 6 7 8 8 8 8 8 7
Wind_Direction
218 221 223 225 228 229 228 227 226 225 227 231 234 239 241 239 242 245 242 237 236 237 236 233 232 234 238 240 242 244 247 248 248 249 250 250 250 252 254 258 260 263 265 265 264 263 263 264 261 255 255 260 266 272 279 284 285 286 286 283 280 284 294 300 301 306 316 325 329 332 334 338 341 342 343 342 338 332 329 329 328 328 330 334 337
218 221 223 226 228 230 230 228 227 226 225 227 230 235 237 236 237 239 237 234 233 235 234 233 236 240 239 239 240 241 242 244 244 247 250 250 250 253 254 255 259 262 262 261 261 263 264 265 263 260 260 262 267 272 276 281 284 285 285 283 281 280 285 291 295 299 308 321 331 331 333 338 342 344 344 344 344 342 337 334 332 333 335 339 340
220 222 224 226 227 229 231 230 229 229 227 226 228 232 233 233 233 233 233 232 232 234 234 236 240 242 240 240 241 240 243 243 239 242 246 249 250 251 254 258 260 260 260 259 259 259 260 264 267 266 264 264 267 271 273 276 278 279 277 279 282 278 274 279 286 292 301 317 330 331 333 339 343 344 344 345 345 341 338 337 338 338 339 341 344
222 225 227 228 228 228 229 229 229 230 230 230 230 230 230 230 231 231 232 233 233 234 233 232 235 238 239 240 241 243 246 242 237 239 244 246 247 250 256 261 263 262 261 260 259 258 258 264 270 270 268 267 267 269 272 275 276 273 271 274 277 272 267 269 274 281 292 312 327 332 335 338 341 341 339 341 342 339 338 340 340 340 341 345 350
223 227 230 230 229 227 228 229 229 230 231 232 233 232 232 231 230 231 232 233 234 234 231 229 231 235 238 240 244 246 245 241 238 242 249 251 251 254 259 263 266 266 264 262 261 261 264 269 274 274 272 271 271 271 273 275 275 272 271 273 271 267 264 261 262 269 285 306 321 329 335 336 338 337 335 336 338 337 340 342 340 341 344 347 354
225 228 231 232 229 227 227 228 228 229 231 233 234 235 235 234 233 232 232 232 233 233 230 228 231 237 241 244 247 249 246 243 244 249 255 258 261 264 265 266 268 268 267 266 264 263 266 270 273 274 274 275 275 274 272 272 274 272 269 266 262 259 257 257 260 266 281 301 314 323 330 333 333 333 333 334 334 335 336 338 340 345 347 348 357
228 228 230 231 229 226 226 227 227 229 230 232 234 236 237 237 236 234 232 232 232 232 231 231 234 239 244 246 248 251 251 250 252 255 259 262 267 271 273 273 272 271 269 268 266 265 267 270 273 275 276 277 276 274 271 270 271 271 267 259 251 249 252 255 259 264 276 293 306 315 324 328 328 329 331 330 329 331 334 337 343 349 349 348 356
228 227 227 228 227 224 224 226 227 228 230 231 234 236 237 238 238 234 232 233 233 232 233 235 239 244 247 248 250 253 254 256 259 262 264 267 270 274 278 279 278 276 273 269 267 267 267 269 273 276 278 278 276 273 270 269 270 272 270 261 249 246 249 253 255 261 272 284 297 309 317 321 321 323 325 322 323 329 335 340 343 345 348 349 352
224 225 226 226 224 222 223 225 226 227 229 231 233 235 236 237 237 233 231 234 236 235 236 240 246 250 252 254 256 256 256 258 261 265 269 271 272 275 279 281 282 281 277 273 270 267 267 267 269 273 278 280 278 274 269 268 272 274 271 263 255 251 252 254 256 262 271 280 292 303 309 313 315 318 320 320 324 331 337 339 337 337 344 349 346
223 221 224 225 224 222 222 224 226 227 229 230 232 234 234 234 235 234 235 237 238 239 241 245 251 256 259 261 262 261 259 259 261 265 270 272 272 273 274 277 279 280 277 275 272 270 269 268 267 269 273 277 278 275 271 270 271 272 269 264 262 261 261 260 261 265 272 279 287 294 298 304 309 313 317 319 325 330 333 334 332 331 335 337 337
225 221 221 223 222 223 223 223 226 227 228 230 231 231 231 231 233 236 238 240 240 242 245 249 255 262 266 268 268 266 263 261 262 265 270 271 269 269 271 273 275 277 277 277 275 274 273 271 269 267 268 272 273 270 268 268 270 270 269 266 264 263 263 263 265 266 270 275 278 284 291 298 304 309 313 316 321 325 327 328 328 328 328 325 327
228 223 221 223 224 224 224 223 223 223 225 226 228 229 230 231 233 236 239 240 242 246 249 254 260 266 270 272 272 272 270 267 265 266 269 269 266 265 268 271 274 277 279 279 278 276 274 271 269 265 262 265 268 267 266 268 271 272 271 269 268 266 265 266 268 267 268 270 273 279 286 292 296 302 308 312 315 318 320 321 321 322 323 319 318
226 221 220 228 231 227 225 223 220 221 223 224 226 228 231 234 236 239 240 239 241 245 246 250 256 261 264 267 269 271 272 272 271 269 268 267 264 263 264 267 270 273 277 278 277 274 271 270 267 264 262 260 262 264 268 272 275 275 272 269 269 269 269 270 270 269 268 268 272 277 283 286 290 297 303 307 310 311 313 314 313 315 317 311 309
224 218 218 228 234 231 228 226 223 226 230 230 230 233 237 241 241 240 241 243 245 248 251 254 257 258 261 264 265 267 268 268 269 269 268 267 265 263 262 264 266 268 270 273 273 271 271 269 267 265 263 261 260 262 266 272 276 278 277 272 268 267 269 269 269 268 267 268 271 276 279 282 287 293 299 303 305 306 307 307 307 310 311 305 303
221 219 218 226 234 232 229 230 232 235 238 239 239 241 242 243 240 241 245 249 253 257 260 261 258 255 257 261 264 267 268 268 267 266 266 266 265 264 263 262 262 264 265 266 267 269 272 272 271 268 263 260 260 260 262 268 274 278 279 276 270 268 268 267 266 264 264 266 269 272 276 280 284 290 295 299 300 301 303 305 308 309 305 299 299
218 219 218 223 230 230 230 235 238 239 239 240 242 242 241 240 242 248 252 254 256 260 263 263 260 260 264 266 268 270 271 271 269 267 265 264 264 264 263 262 262 263 263 262 262 265 268 271 273 271 266 261 260 261 263 267 272 277 279 276 270 267 266 264 263 261 262 264 266 269 274 278 283 288 291 294 295 298 303 307 308 302 291 288 293
212 215 217 220 228 232 233 236 238 239 239 241 242 243 244 247 254 261 263 262 263 266 267 268 269 270 270 270 270 269 270 271 271 269 267 265 265 265 265 265 265 265 264 264 264 266 268 269 270 270 268 266 263 262 263 266 269 273 277 275 269 265 263 261 259 259 259 262 265 268 272 275 281 286 287 289 293 299 304 303 295 284 279 281 288
203 209 212 217 227 233 233 234 238 241 244 248 251 252 255 259 261 264 266 268 270 269 270 271 272 271 268 268 269 270 271 272 272 270 268 267 267 267 266 266 267 267 266 266 266 268 270 271 269 267 266 267 266 262 259 263 268 271 272 271 267 263 261 260 260 260 260 262 265 269 272 275 280 281 281 285 292 296 295 288 279 278 281 283 290
198 203 209 214 223 230 234 238 245 246 248 255 265 272 275 274 272 274 275 277 276 273 272 273 273 272 270 271 272 272 272 272 272 271 271 271 271 272 271 270 270 270 269 269 268 268 268 269 268 266 263 263 263 261 257 257 262 266 267 267 265 262 258 258 260 261 262 263 266 269 272 275 276 277 278 283 288 286 282 276 274 278 283 288 296
179 189 199 205 213 224 233 242 253 259 260 265 273 280 283 281 281 285 287 283 279 274 270 270 270 271 271 271 272 272 272 273 273 273 274 275 276 276 277 276 275 274 273 272 272 271 270 268 266 264 262 259 257 256 254 253 255 258 261 264 266 263 260 257 258 261 262 263 265 267 269 271 271 272 275 278 277 273 270 271 273 278 287 296 304
145 168 184 185 191 210 226 239 254 266 272 275 279 285 291 293 298 309 304 286 277 270 266 270 273 272 272 274 277 279 279 279 279 279 280 281 281 281 282 281 280 280 280 280 280 279 275 271 265 261 259 257 254 251 248 246 247 249 254 261 265 265 262 258 257 259 260 260 262 262 261 261 263 265 265 262 258 259 263 267 272 282 294 303 310
121 137 151 149 150 162 171 179 207 244 295 315 321 328 335 335 337 348 302 275 289 307 293 297 307 301 292 297 304 303 301 302 305 306 307 308 307 305 304 300 296 294 292 292 292 290 285 279 272 264 258 254 250 247 243 239 238 243 250 257 262 263 261 257 257 260 260 258 257 255 255 256 253 247 242 236 234 242 252 265 280 293 301 306 313
108 115 124 123 119 114 107 103 97 89 82 65 49 40 35 30 32 54 106 231 352 25 26 10 13 16 10 8 3 354 350 348 345 345 344 343 343 342 339 332 325 317 310 306 306 307 304 297 286 273 261 251 245 244 243 237 235 240 246 250 253 254 253 251 253 259 262 260 258 257 253 242 224 216 215 213 216 231 246 265 288 302 311 322 334
103 102 100 95 94 93 90 89 86 81 74 63 54 50 50 54 54 52 61 58 13 10 10 6 6 11 15 17 17 16 15 12 7 3 358 354 352 353 352 350 345 337 329 325 324 324 323 320 313 293 271 254 242 238 237 233 232 235 235 234 238 243 247 252 256 261 262 260 258 256 240 211 198 202 203 201 211 247 260 269 288 303 315 326 333
90 88 84 80 78 75 73 73 68 61 57 52 52 52 49 49 49 44 40 33 6 359 359 358 0 11 18 15 12 12 12 9 4 357 353 349 346 346 347 348 350 350 346 343 341 337 331 330 334 331 306 268 243 232 229 226 226 230 229 230 236 243 256 267 271 271 271 269 253 239 215 192 192 199 202 218 251 264 256 259 276 292 304 314 319
82 78 74 70 66 62 59 57 53 49 47 46 47 46 39 33 30 29 25 19 12 11 9 2 0 3 1 354 351 350 350 351 351 349 349 349 346 343 341 340 342 347 350 353 352 346 341 339 339 344 345 326 285 265 256 239 236 244 253 259 263 261 267 278 285 285 282 259 180 182 184 185 197 215 231 249 260 255 242 246 264 281 292 299 302
79 73 68 64 60 58 54 50 47 43 39 36 32 28 25 21 15 9 3 358 355 355 350 349 353 344 328 317 315 320 328 333 334 333 335 338 337 336 334 331 333 338 344 349 351 347 345 345 341 339 340 335 329 334 331 295 269 275 274 266 262 259 269 292 329 323 294 206 188 201 217 222 228 237 241 242 242 238 238 244 257 270 279 285 289
76 72 66 59 55 54 51 47 44 39 33 28 21 13 10 7 360 354 347 339 335 329 320 318 315 303 296 299 304 313 319 321 321 321 322 324 325 327 326 322 321 325 331 338 341 338 335 340 343 341 339 342 356 12 7 346 268 234 234 240 248 249 256 285 347 306 249 194 203 223 237 232 229 231 231 231 233 236 240 246 255 262 268 274 279
69 66 62 56 51 49 46 42 37 31 24 17 10 2 358 352 345 339 333 325 322 318 313 311 308 302 300 303 306 310 313 315 316 317 319 322 323 324 324 321 317 317 321 327 331 328 322 321 327 329 327 332 2 24 22 22 53 143 176 202 224 215 207 210 219 210 188 184 198 207 208 208 213 219 225 232 238 243 249 257 262 265 268 270 273
54 49 45 41 36 33 31 28 23 18 14 9 4 359 355 350 342 337 331 324 319 315 310 308 307 306 306 307 307 308 311 314 316 319 322 325 326 326 325 326 327 323 318 319 323 320 303 278 267 232 206 273 306 39 39 39 52 82 120 145 167 181 191 198 187 170 168 175 182 188 195 203 215 225 234 242 251 257 264 268 268 270 272 272 273
42 37 31 26 23 21 19 17 15 13 11 8 4 1 357 352 345 339 335 331 327 323 320 318 316 314 312 310 310 312 314 317 320 325 329 331 331 330 330 333 337 337 327 321 320 314 290 244 212 188 175 175 162 151 181 279 268 260 250 216 203 195 187 177 162 156 165 177 184 194 208 222 236 248 256 263 268 270 270 270 271 272 273 273 274
28 24 19 15 13 11 9 9 9 9 7 5 2 358 353 350 345 338 334 335 334 331 331 330 328 326 323 320 319 319 321 323 327 333 339 342 340 340 343 347 352 352 347 343 335 319 298 247 217 216 232 248 237 237 265 267 253 240 234 223 210 194 179 169 160 159 182 203 218 240 258 267 272 275 276 275 274 273 272 272 272 273 274 276 278
16 13 9 6 4 2 0 0 0 360 360 358 355 350 346 344 342 337 332 331 330 329 329 330 329 326 324 323 324 324 325 329 334 339 346 351 353 354 356 360 3 3 2 4 6 358 332 261 234 241 259 262 245 240 242 214 191 187 188 190 203 215 226 257 291 302 302 303 303 300 298 297 295 292 288 285 281 279 277 277 277 278 279 280 282
7 4 2 359 357 355 353 352 351 351 350 349 346 344 342 339 336 331 324 319 318 318 321 324 326 327 327 328 330 332 334 338 343 348 354 360 6 11 12 10 9 10 14 20 25 34 59 111 147 143 127 127 124 117 121 126 118 99 74 359 321 315 317 317 316 315 315 317 317 314 312 309 304 299 293 288 285 283 282 282 283 283 284 284 286
352 348 347 346 346 345 344 344 344 342 340 338 337 337 336 332 329 325 318 312 309 309 312 317 320 322 327 332 335 339 344 347 351 356 1 7 14 19 18 13 10 14 22 30 40 66 93 98 101 104 106 108 100 82 60 35 10 353 345 342 337 332 326 320 317 316 316 316 314 313 311 307 303 298 293 289 287 285 285 285 286 287 288 289 291
337 333 330 328 329 331 334 336 337 336 333 331 329 327 327 325 322 318 313 309 304 300 301 304 307 312 320 327 332 335 341 348 353 356 1 8 14 14 8 2 2 8 16 27 47 76 87 78 86 90 70 30 10 357 347 345 342 338 336 334 329 324 319 316 315 315 314 313 311 309 306 303 300 296 293 291 290 289 289 290 291 292 293 295 296
322 322 321 318 316 317 319 322 324 325 326 325 322 319 317 316 315 312 307 302 299 295 293 294 295 299 307 313 317 320 325 335 343 344 346 348 349 348 348 349 352 354 353 357 6 2 354 354 357 353 346 337 333 332 332 331 329 326 324 321 318 316 315 314 314 315 314 313 312 309 306 303 301 298 296 295 295 295 295 297 297 298 300 302 304
308 308 308 308 309 309 310 312 313 314 314 315 316 314 311 309 309 308 304 298 293 289 287 285 284 286 289 295 300 303 306 314 323 329 333 334 332 333 340 352 360 352 345 345 347 344 348 350 344 338 334 332 329 327 324 323 321 320 319 317 316 316 315 315 315 314 313 312 310 307 305 304 302 302 302 301 301 301 302 303 304 305 306 307 308
299 297 296 295 295 296 298 301 303 305 307 309 311 310 308 305 305 306 304 300 295 291 287 281 278 278 277 279 285 288 291 296 302 313 324 331 331 332 343 356 360 357 351 344 337 335 336 336 334 331 329 327 324 324 322 321 321 320 320 319 319 318 317 316 314 312 310 309 307 306 305 305 305 305 305 305 305 305 306 307 308 309 309 309 309
296 294 293 293 292 291 292 292 293 295 297 299 302 304 303 302 302 303 303 300 296 294 291 286 283 281 276 274 276 278 281 284 291 303 318 328 333 339 351 354 349 345 340 333 328 326 326 325 325 325 325 323 323 323 322 321 320 320 319 318 317 316 314 312 311 310 309 308 308 308 307 307 307 307 307 307 307 308 309 310 310 310 309 310 310
294 292 291 292 292 292 293 293 292 292 291 291 292 293 294 294 294 295 297 295 292 290 288 284 281 278 274 272 273 275 277 280 285 296 310 320 326 335 350 354 348 344 340 336 332 329 327 325 324 323 322 321 321 321 320 320 320 319 318 317 315 314 312 311 310 310 309 309 310 310 310 310 309 309 309 309 309 310 312 312 312 311 311 312 312
302 300 297 296 295 295 296 296 295 294 293 291 290 290 290 290 287 285 284 284 284 283 282 280 278 274 270 269 270 271 272 274 278 287 299 305 305 311 333 345 344 341 337 333 331 328 326 325 323 321 320 319 319 319 319 319 319 318 317 316 314 313 312 310 309 309 308 309 310 311 311 311 311 311 312 312 311 312 312 312 312 311 312 312 312
309 309 308 307 304 302 301 300 299 297 296 295 293 291 290 289 286 282 278 275 276 277 277 277 277 275 272 269 267 267 268 269 272 279 288 288 279 283 312 325 330 332 331 330 330 328 325 323 320 318 318 317 317 317 318 318 318 317 315 313 311 309 307 306 306 306 308 309 311 312 311 311 311 312 313 313 312 312 312 312 312 311 311 312 312
300 301 303 303 302 301 301 300 300 300 299 297 296 294 292 291 289 285 279 273 271 271 272 272 273 273 273 272 270 267 265 265 267 273 278 274 266 276 305 317 324 331 334 337 336 333 329 326 322 319 319 318 318 318 318 318 317 315 312 310 307 305 304 304 305 306 308 311 313 314 313 312 313 315 316 315 315 315 314 314 314 314 314 316 318
295 295 296 298 299 300 300 300 299 299 298 298 297 294 292 291 289 287 283 276 271 268 266 265 265 267 269 270 269 264 260 259 263 268 271 266 265 284 305 315 326 335 340 342 341 336 332 327 324 322 322 321 321 321 321 320 317 313 310 308 306 304 303 304 305 308 311 313 315 316 317 317 318 320 321 319 319 319 320 321 322 322 321 322 323
296 295 296 297 298 298 298 297 297 297 296 296 295 293 291 288 286 284 283 278 272 268 265 261 259 259 262 264 264 260 256 255 258 260 260 261 268 285 299 306 318 330 335 337 336 333 331 329 327 326 325 323 323 325 325 322 317 312 307 305 302 302 304 307 310 312 312 313 315 318 321 322 323 324 324 325 326 327 328 329 329 326 322 320 320
303 300 298 296 296 296 296 297 297 296 295 294 293 292 289 286 283 282 281 275 269 266 263 259 256 255 255 256 257 256 253 252 250 247 247 255 267 279 288 294 305 316 322 326 329 330 330 330 328 327 325 325 326 328 327 322 316 311 309 308 309 311 316 320 321 318 313 312 317 322 324 325 326 326 327 329 330 331 332 332 330 328 327 323 321
306 302 298 297 296 297 298 300 300 298 296 296 294 293 291 287 284 282 280 275 269 265 261 257 254 253 250 249 251 252 248 243 238 237 243 255 267 275 280 286 295 304 312 321 326 328 329 329 328 327 327 326 327 326 324 319 315 313 315 316 318 321 325 328 327 321 314 315 321 325 324 325 327 327 328 330 329 329 331 331 330 330 330 328 326
308 304 302 301 302 303 303 304 303 301 300 299 298 297 294 291 287 284 282 279 276 272 266 261 258 256 253 249 247 245 239 231 228 236 248 258 265 270 274 280 289 301 313 322 325 326 327 328 327 325 325 324 322 321 320 317 312 310 311 312 313 317 321 325 325 320 313 314 319 321 321 324 326 325 324 326 327 328 330 329 328 328 327 325 327
308 305 304 304 305 307 308 308 307 306 306 306 306 306 303 299 295 293 291 290 291 290 284 274 265 259 253 247 239 233 228 226 231 236 239 245 253 259 267 279 292 306 316 321 322 323 324 325 324 323 322 320 318 318 317 312 304 299 299 301 305 309 314 319 322 317 310 311 317 321 321 324 325 321 316 318 325 332 334 334 333 332 329 328 329
310 309 309 309 311 314 317 319 322 325 327 328 328 328 326 322 317 312 307 305 303 298 292 283 269 255 245 236 228 221 219 224 230 229 228 236 250 261 273 288 302 312 318 319 318 319 319 320 319 318 316 315 316 318 316 307 297 295 298 302 306 309 310 313 316 312 306 307 315 318 320 323 324 318 313 316 327 339 344 345 344 342 336 332 331